{"data":{"norad_id":63239,"intl_designator":"2025-052AF","name":"TEVEL2-8","alt_names":[],"object_type":"PAYLOAD","status":"ACTIVE","operator":null,"country":"ISRA","launch_date":"2025-03-15","launch_site_code":"AFWTR","launch_vehicle":null,"mission":null,"orbit_class":"UNKNOWN","rcs_meters":null,"size_class":null,"mass_kg":null,"dimensions":null,"purposes":["comms"],"wikipedia_slug":null,"has_3d_model":false,"image_url":null,"decayed_at":null,"tle_current":{"epoch":"2026-09-18T03:53:10.688928Z","epoch_age_seconds":216347,"freshness":"STALE","line1":"1 63239U 25052AF  26261.16192927  .00011984  00000+0  36466-3 0  9991","line2":"2 63239  97.3792 156.2599 0006556 151.7923 208.3676 15.34143407 84263","mean_motion":15.34143407,"eccentricity":0.0006556,"inclination_deg":97.3792,"raan_deg":156.2599,"arg_perigee_deg":151.7923,"mean_anomaly_deg":208.3676,"bstar":0.00036466,"rev_number":8426,"period_min":93.863454578598,"perigee_km":458.98064004939,"apogee_km":467.9513498964,"semimajor_km":6841.6029949729,"source":"CELESTRAK","updated_at":"2026-09-20T09:00:45.265762Z"}}}